Date,TemperatureHighF,TemperatureAvgF,TemperatureLowF,DewpointHighF,DewpointAvgF,DewpointLowF,HumidityHigh,HumidityAvg,HumidityLow,PressureMaxIn,PressureMinIn,WindSpeedMaxMPH,WindSpeedAvgMPH,GustSpeedMaxMPH,PrecipitationSumIn
2013-2-1,54.0,43.6,34.0,49.0,41.7,32.0,97,93,78,30.38,30.30,3,0,8,0.07
2013-2-2,41.0,36.4,31.0,40.0,35.4,30.0,97,96,95,30.36,30.23,2,0,6,0.01
2013-2-3,47.0,41.3,36.0,44.0,39.7,35.0,97,95,86,30.29,30.18,4,1,9,0.10
2013-2-4,50.0,44.9,43.0,44.0,42.0,41.0,95,89,77,30.19,29.85,5,1,10,0.09
2013-2-5,52.0,45.7,43.0,44.0,41.8,40.0,94,87,69,29.90,29.81,7,3,19,0.10
2013-2-6,48.0,44.4,43.0,41.0,39.5,38.0,90,83,69,30.01,29.77,7,2,17,0.08
2013-2-7,49.0,41.4,30.0,40.0,35.8,28.0,95,81,63,30.16,29.77,6,2,18,0.22
2013-2-8,44.0,35.0,28.0,39.0,32.7,27.0,96,91,78,30.28,30.15,2,0,5,0.05
2013-2-9,43.0,39.1,37.0,41.0,37.7,35.0,96,95,90,30.31,30.23,1,0,3,0.08
2013-2-10,47.0,38.0,32.0,41.0,35.6,31.0,97,92,72,30.35,30.30,2,0,6,0.01
2013-2-11,44.0,39.7,37.0,41.0,38.1,35.0,100,94,88,30.34,30.29,1,0,6,0.04
2013-2-12,48.0,43.8,38.0,45.0,42.0,37.0,97,93,86,30.37,30.25,7,2,13,0.02
2013-2-13,48.0,44.0,40.0,45.0,41.6,38.0,96,91,82,30.46,30.26,3,1,11,0.09
2013-2-14,48.0,44.0,40.0,44.0,41.5,38.0,96,91,82,30.53,30.46,3,0,8,0.08
2013-2-15,57.0,43.5,34.0,47.0,39.9,32.0,97,88,66,30.52,30.15,5,1,9,0.01
2013-2-16,45.0,41.0,33.0,44.0,39.3,32.0,97,94,85,30.18,30.09,7,1,16,0.41
2013-2-17,45.0,39.7,33.0,39.0,36.8,32.0,95,90,79,30.22,30.09,3,0,10,0.13
2013-2-18,45.0,37.5,31.0,38.0,34.3,30.0,97,88,73,30.09,29.74,4,0,9,0.00
2013-2-19,54.0,40.2,29.0,40.0,34.5,27.0,94,82,56,29.98,29.72,7,1,13,0.00
2013-2-20,44.0,36.7,30.0,39.0,34.4,28.0,96,91,78,30.02,29.97,4,0,10,0.03
2013-2-21,42.0,39.5,35.0,39.0,37.3,34.0,96,92,85,30.04,29.98,6,2,13,0.05
2013-2-22,46.0,41.0,36.0,41.0,38.0,34.0,95,89,78,30.02,29.64,8,4,28,0.27
2013-2-23,47.0,40.4,36.0,40.0,36.5,34.0,94,86,70,30.35,29.86,4,1,11,0.30
2013-2-24,46.0,42.4,39.0,38.0,36.6,35.0,88,80,71,30.35,29.92,7,3,16,0.01
2013-2-25,52.0,43.2,38.0,42.0,36.7,32.0,92,78,53,30.28,29.86,9,2,19,0.08
2013-2-26,47.0,40.0,31.0,37.0,32.8,29.0,100,77,57,30.33,30.17,5,1,13,0.03
2013-2-27,51.0,43.4,40.0,43.0,39.2,34.0,95,85,57,30.28,30.18,6,1,13,0.38
2013-2-28,51.0,43.9,40.0,49.0,42.3,38.0,96,94,91,30.28,30.16,8,2,18,0.67